Location: Unspecified
(0.0000°N, 0.0000°E)
Time: 01:27:12
(UTC+00:00)

Explorer 11/Cluster Stage 4 - Pass Details

Date: 24 November 2019
Orbit: 467 x 1259 km, 28.8° (Epoch: 11 December)

Event Time Altitude Azimuth Distance (km) Brightness Sun altitude
Exits shadow 02:36:46 34° 154° (SSE) 1,944 8.7 -43.6°
Drops below altitude 10° 02:41:11 10° 136° (SE) 3,157 10.2 -42.7°
Sets 02:44:03 0° 131° (SE) 4,057 11.0 -42.0°
